Terug naar catalogus

STARLINK-32552

ActiefCommunicatieVLEO
NORAD 62174·PAYLOAD·🇺🇸 United States

Gelanceerd Nov 30, 2024 vanaf Vandenberg Space Force Base

Loading…

Volgende Passages (komende 24 uur)

TLE

VersSource: CelesTrak SupGP

Epoch: Sep 14, 2026, 21:42 UTC

1 62174C 24225M   26257.90465278  .00044692  00000+0  37466-2 0  2577
2 62174  70.0018  47.2588 0002691 278.8470 331.6136 14.98297112    14

Volg STARLINK-32552 in realtime met AllMySat

Download on the App Store